Weather History for EHWO - December, 2013

Change the Weather History Date:

Tuesday, December 3, 2013

  Actual Average Record
Temperature  
Mean Temperature 32 °F -  
Max Temperature 39 °F 42 °F 51 °F (2011)
Min Temperature 26 °F 34 °F 12 °F (2010)
Degree Days  
Heating Degree Days 32    
Moisture  
Dew Point 30 °F    
Average Humidity 99    
Maximum Humidity 100    
Minimum Humidity 93    
Precipitation  
Precipitation 0.00 in - - ()
Sea Level Pressure  
Sea Level Pressure 30.38 in    
Wind  
Wind Speed 2 mph ()    
Max Wind Speed 4 mph    
Max Gust Speed -    
Visibility 0.9 miles    
Events Fog , Snow    
Averages and records for this station are not official NWS values.
T = Trace of Precipitation, MM = Missing Value Source: Averaged Metar Reports

Daily Weather History Graph

Daily Weather History Graph

Search for Another Location

Airport or City:

Trip Planner

Search our weather history database for the weather conditions in past years. The results will help you decide how hot, cold, wet, or windy it might be!

Date:

Astronomy

Dec. 03, 2013 Rise Set
Actual Time 8:28 AM CET 4:36 PM CET
Civil Twilight 7:49 AM CET 5:15 PM CET
Nautical Twilight 7:06 AM CET 5:57 PM CET
Astronomical Twilight 6:26 AM CET 6:38 PM CET
Moon 8:38 AM CET (12/3) 5:26 PM CET (12/3)
Length of Visible Light 9h 26m
Length of Day
8h 07m
New Moon, 0% of the Moon is Illuminated
Dec 3
New Moon
Dec 9
First Quarter
Dec 17
Full
Dec 25
Last Quarter
Jan 1
New

Hourly Weather History & Observations

Time (CET) Temp. Windchill Dew Point Humidity Pressure Visibility Wind Dir Wind Speed Gust Speed Precip Events Conditions
12:09 AM 30.2 °F 26.7 °F 28.4 °F 93% 30.45 in - ENE 3.5 mph - N/A   Mist
12:25 AM 30.2 °F 26.7 °F 30.2 °F 100% 30.45 in 2.5 mi ENE 3.5 mph - N/A   Mist
12:29 AM 30.2 °F 26.7 °F 30.2 °F 100% 30.45 in 3.7 mi ENE 3.5 mph - N/A   Mist
12:41 AM 30.2 °F 26.7 °F 28.4 °F 93% 30.45 in - NE 3.5 mph - N/A   Mist
12:55 AM 30.2 °F - 30.2 °F 100% 30.45 in - ENE 2.3 mph - N/A   Mist
1:05 AM 30.2 °F - 30.2 °F 100% 30.42 in 2.5 mi ENE 2.3 mph - N/A   Mist
1:13 AM 30.2 °F - 30.2 °F 100% 30.42 in - East 2.3 mph - N/A   Mist
1:25 AM 30.2 °F - 28.4 °F 93% 30.42 in 1.3 mi South 1.2 mph - N/A   Mostly Cloudy
1:38 AM 30.2 °F - 28.4 °F 93% 30.42 in 1.6 mi Calm Calm - N/A   Mist
1:41 AM 30.2 °F - 28.4 °F 93% 30.42 in 0.9 mi SSW 1.2 mph - N/A   Mist
1:48 AM 30.2 °F - 28.4 °F 93% 30.42 in - South 1.2 mph - N/A Fog Light Freezing Fog
1:55 AM 30.2 °F - 30.2 °F 100% 30.42 in 0.6 mi East 1.2 mph - N/A Fog Light Freezing Fog
1:59 AM 30.2 °F - 30.2 °F 100% 30.42 in 0.4 mi East 1.2 mph - N/A Fog Light Freezing Fog
2:25 AM 28.4 °F - 28.4 °F 100% 30.42 in 0.3 mi NE 1.2 mph - N/A Fog Light Freezing Fog
2:30 AM 28.4 °F - 28.4 °F 100% 30.42 in 0.6 mi ENE 1.2 mph - N/A Fog Light Freezing Fog
2:34 AM 28.4 °F - 28.4 °F 100% 30.42 in 1.4 mi East 2.3 mph - N/A   Mist
2:44 AM 30.2 °F - 28.4 °F 93% 30.42 in 1.2 mi Calm Calm - N/A   Partly Cloudy
2:55 AM 28.4 °F - 28.4 °F 100% 30.42 in 1.1 mi ENE 1.2 mph - N/A   Mostly Cloudy
3:21 AM 28.4 °F - 28.4 °F 100% 30.42 in - NE 1.2 mph - N/A   Mist
3:25 AM 28.4 °F - 28.4 °F 100% 30.42 in 1.4 mi NE 1.2 mph - N/A   Mist
3:36 AM 28.4 °F - 28.4 °F 100% 30.42 in - NNE 1.2 mph - N/A   Mist
3:42 AM 28.4 °F - 28.4 °F 100% 30.42 in - NE 1.2 mph - N/A   Mist
3:46 AM 28.4 °F - 28.4 °F 100% 30.42 in - ENE 1.2 mph - N/A   Mist
3:50 AM 28.4 °F - 28.4 °F 100% 30.42 in - NE 1.2 mph - N/A   Mist
3:55 AM 28.4 °F - 28.4 °F 100% 30.42 in 1.6 mi NE 2.3 mph - N/A   Mist
4:04 AM 28.4 °F - 28.4 °F 100% 30.42 in - ENE 2.3 mph - N/A   Mist
4:17 AM 28.4 °F - 28.4 °F 100% 30.42 in 1.8 mi ENE 1.2 mph - N/A   Mist
4:21 AM 28.4 °F - 28.4 °F 100% 30.42 in 3.1 mi NE 1.2 mph - N/A   Mist
4:25 AM 28.4 °F - 26.6 °F 93% 30.42 in - NE 1.2 mph - N/A   Mist
4:26 AM 26.6 °F - 26.6 °F 100% 30.42 in - NE 2.3 mph - N/A   Mist
4:42 AM 28.4 °F - 28.4 °F 100% 30.42 in 0.6 mi ENE 2.3 mph - N/A   Mist
4:46 AM 26.6 °F - 26.6 °F 100% 30.42 in 1.0 mi East 2.3 mph - N/A   Mist
4:55 AM 28.4 °F - 28.4 °F 100% 30.42 in 1.8 mi East 2.3 mph - N/A   Mist
5:06 AM 26.6 °F - 26.6 °F 100% 30.42 in - East 2.3 mph - N/A   Mist
5:12 AM 26.6 °F - 26.6 °F 100% 30.42 in 1.8 mi ESE 1.2 mph - N/A   Mist
5:20 AM 26.6 °F - 26.6 °F 100% 30.42 in 0.4 mi Calm Calm - N/A Fog Light Freezing Fog
5:25 AM 26.6 °F - 26.6 °F 100% 30.39 in 0.4 mi East 1.2 mph - N/A Fog Light Freezing Fog
5:29 AM 26.6 °F - 26.6 °F 100% 30.39 in 0.5 mi ESE 1.2 mph - N/A Fog Light Freezing Fog
5:34 AM 26.6 °F - 26.6 °F 100% 30.39 in 0.4 mi SSE 1.2 mph - N/A Fog Light Freezing Fog
5:43 AM 26.6 °F - 26.6 °F 100% 30.39 in 0.5 mi East 1.2 mph - N/A Fog Light Freezing Fog
5:55 AM 26.6 °F - 26.6 °F 100% 30.39 in 0.9 mi ENE 1.2 mph - N/A   Mist
5:59 AM 26.6 °F - 24.8 °F 93% 30.42 in 1.0 mi ENE 1.2 mph - N/A   Mist
6:03 AM 26.6 °F - 26.6 °F 100% 30.42 in 0.7 mi ENE 1.2 mph - N/A   Mist
6:07 AM 26.6 °F - 26.6 °F 100% 30.42 in 0.3 mi Calm Calm - N/A Fog Light Freezing Fog
6:25 AM 26.6 °F - 26.6 °F 100% 30.42 in 0.3 mi East 1.2 mph - N/A Fog Light Freezing Fog
6:48 AM 26.6 °F - 26.6 °F 100% 30.42 in - Calm Calm - N/A Fog Light Freezing Fog
6:55 AM 26.6 °F - 26.6 °F 100% 30.42 in - Calm Calm - N/A Fog Light Freezing Fog
7:07 AM 26.6 °F - 26.6 °F 100% 30.42 in - Calm Calm - N/A Fog Light Freezing Fog
7:11 AM 26.6 °F - 26.6 °F 100% 30.42 in 1.2 mi ENE 1.2 mph - N/A   Mist
7:19 AM 26.6 °F - 26.6 °F 100% 30.42 in 0.9 mi ENE 1.2 mph - N/A   Mist
7:25 AM 26.6 °F - 26.6 °F 100% 30.39 in 0.5 mi ENE 1.2 mph - N/A Fog Light Freezing Fog
7:29 AM 26.6 °F - 26.6 °F 100% 30.39 in 1.6 mi ENE 1.2 mph - N/A   Mist
7:42 AM 26.6 °F - 24.8 °F 93% 30.39 in 1.8 mi Calm Calm - N/A   Mist
7:55 AM 26.6 °F - 24.8 °F 93% 30.39 in 1.4 mi ENE 1.2 mph - N/A   Mist
8:00 AM 26.6 °F - 26.6 °F 100% 30.39 in 1.8 mi Calm Calm - N/A   Mist
8:11 AM 26.6 °F - 26.6 °F 100% 30.39 in 1.4 mi Calm Calm - N/A   Mist
8:12 AM 26.6 °F - 24.8 °F 93% 30.39 in 0.3 mi Calm Calm - N/A Fog Light Freezing Fog
8:25 AM 26.6 °F - 26.6 °F 100% 30.39 in 0.3 mi Calm Calm - N/A Fog Light Freezing Fog
8:47 AM 26.6 °F - 26.6 °F 100% 30.39 in 0.6 mi ENE 1.2 mph - N/A Fog Light Freezing Fog
8:55 AM 26.6 °F - 26.6 °F 100% 30.39 in 1.7 mi ENE 1.2 mph - N/A   Mist
9:01 AM 26.6 °F - 26.6 °F 100% 30.39 in 0.2 mi ENE 1.2 mph - N/A Fog Light Freezing Fog
9:11 AM 26.6 °F - 26.6 °F 100% 30.39 in 0.6 mi NE 1.2 mph - N/A Fog Light Freezing Fog
9:15 AM 26.6 °F - 26.6 °F 100% 30.39 in 1.6 mi ENE 1.2 mph - N/A   Mist
9:19 AM 26.6 °F - 26.6 °F 100% 30.39 in - ENE 1.2 mph - N/A   Mist
9:25 AM 28.4 °F - 26.6 °F 93% 30.39 in - Calm Calm - N/A   Mist
9:55 AM 28.4 °F - 28.4 °F 100% 30.39 in 2.5 mi Calm Calm - N/A   Overcast
10:03 AM 28.4 °F - 28.4 °F 100% 30.39 in 0.2 mi East 1.2 mph - N/A Fog Light Freezing Fog
10:25 AM 30.2 °F - 30.2 °F 100% 30.39 in 0.1 mi WSW 1.2 mph - N/A Fog Light Freezing Fog
10:55 AM 33.8 °F - 32.0 °F 93% 30.39 in 0.5 mi West 1.2 mph - N/A Fog Fog
11:25 AM 33.8 °F 30.8 °F 33.8 °F 100% 30.39 in 0.1 mi WSW 3.5 mph - N/A Fog Fog
11:55 AM 33.8 °F 30.8 °F 33.8 °F 100% 30.39 in 0.1 mi WSW 3.5 mph - N/A Fog Fog
12:25 PM 35.6 °F - 35.6 °F 100% 30.39 in 0.1 mi SW 2.3 mph - N/A Fog Fog
12:55 PM 35.6 °F - 35.6 °F 100% 30.39 in 0.1 mi SW 1.2 mph - N/A Fog Fog
1:25 PM 37.4 °F 34.9 °F 35.6 °F 93% 30.39 in 0.1 mi WSW 3.5 mph - N/A Fog Fog
1:29 PM 37.4 °F 34.9 °F 35.6 °F 93% 30.36 in 0.1 mi WSW 3.5 mph - N/A Fog Fog
1:55 PM 37.4 °F 34.9 °F 37.4 °F 100% 30.36 in 0.1 mi West 3.5 mph - N/A Fog Fog
2:25 PM 37.4 °F 34.9 °F 37.4 °F 100% 30.36 in 0.9 mi SW 3.5 mph - N/A   Overcast
2:55 PM 39.2 °F 37.0 °F 37.4 °F 93% 30.36 in 1.0 mi West 3.5 mph - N/A   Mostly Cloudy
3:01 PM 39.2 °F - 37.4 °F 93% 30.36 in 1.1 mi WSW 2.3 mph - N/A   Mostly Cloudy
3:09 PM 39.2 °F - 39.2 °F 100% 30.36 in 0.9 mi West 1.2 mph - N/A   Mostly Cloudy
3:13 PM 39.2 °F - 37.4 °F 93% 30.36 in 1.0 mi West 2.3 mph - N/A   Mostly Cloudy
3:25 PM 37.4 °F - 37.4 °F 100% 30.36 in 1.2 mi WSW 2.3 mph - N/A   Mostly Cloudy
3:40 PM 37.4 °F - 37.4 °F 100% 30.36 in 0.8 mi West 1.2 mph - N/A   Partly Cloudy
3:47 PM 37.4 °F - 37.4 °F 100% 30.36 in - NW 1.2 mph - N/A Fog Fog
3:55 PM 37.4 °F - 37.4 °F 100% 30.36 in 0.3 mi NW 1.2 mph - N/A Fog Fog
4:02 PM 37.4 °F - 37.4 °F 100% 30.36 in 0.4 mi NNW 1.2 mph - N/A Fog Fog
4:25 PM 37.4 °F - 37.4 °F 100% 30.36 in 0.1 mi ESE 2.3 mph - N/A Fog Fog
4:55 PM 35.6 °F - 35.6 °F 100% 30.33 in 0.1 mi East 2.3 mph - N/A Fog Fog
5:25 PM 35.6 °F - 35.6 °F 100% 30.33 in 0.1 mi ESE 1.2 mph - N/A Fog Fog
5:55 PM 33.8 °F - 33.8 °F 100% 30.33 in 0.1 mi Calm Calm - N/A Fog Fog
6:25 PM 32.0 °F - 32.0 °F 100% 30.33 in 0.1 mi ENE 1.2 mph - N/A Snow Light Snow Grains
6:39 PM 30.2 °F - 30.2 °F 100% 30.33 in 0.1 mi ENE 1.2 mph - N/A Fog Light Freezing Fog
6:55 PM 30.2 °F - 30.2 °F 100% 30.33 in 0.2 mi Calm Calm - N/A Fog Light Freezing Fog
7:25 PM 28.4 °F - 28.4 °F 100% 30.33 in 0.2 mi East 1.2 mph - N/A Fog Light Freezing Fog
7:55 PM 28.4 °F - 28.4 °F 100% 30.33 in 0.2 mi SSE 1.2 mph - N/A Fog Light Freezing Fog
8:03 PM 28.4 °F - 28.4 °F 100% 30.33 in 0.5 mi Calm Calm - N/A Fog Light Freezing Fog
8:11 PM 28.4 °F - 28.4 °F 100% 30.33 in - Calm Calm - N/A Fog Light Freezing Fog
8:25 PM 28.4 °F - 28.4 °F 100% 30.33 in 0.4 mi SSE 1.2 mph - N/A Fog Light Freezing Fog
8:29 PM 28.4 °F - 28.4 °F 100% 30.33 in 0.5 mi SSE 1.2 mph - N/A Fog Light Freezing Fog
8:33 PM 28.4 °F - 28.4 °F 100% 30.33 in 0.3 mi East 1.2 mph - N/A Fog Light Freezing Fog
8:44 PM 28.4 °F - 28.4 °F 100% 30.33 in 0.5 mi NE 1.2 mph - N/A Fog Light Freezing Fog
8:55 PM 28.4 °F - 28.4 °F 100% 30.33 in 0.3 mi NE 1.2 mph - N/A Fog Light Freezing Fog
9:07 PM 28.4 °F - 28.4 °F 100% 30.33 in 0.6 mi East 1.2 mph - N/A Fog Light Freezing Fog
9:11 PM 28.4 °F - 28.4 °F 100% 30.33 in 0.7 mi East 1.2 mph - N/A   Mostly Cloudy
9:15 PM 28.4 °F - 28.4 °F 100% 30.33 in 1.9 mi SE 1.2 mph - N/A   Overcast
9:25 PM 28.4 °F - 28.4 °F 100% 30.33 in - SSW 1.2 mph - N/A   Overcast
9:47 PM 28.4 °F - 28.4 °F 100% 30.33 in 1.6 mi SE 1.2 mph - N/A   Mist
9:55 PM 28.4 °F - 28.4 °F 100% 30.33 in 1.3 mi SSE 1.2 mph - N/A   Mist
10:00 PM 28.4 °F - 28.4 °F 100% 30.33 in 1.6 mi SSW 2.3 mph - N/A   Scattered Clouds
10:04 PM 28.4 °F - 28.4 °F 100% 30.33 in 1.9 mi SSW 2.3 mph - N/A   Mostly Cloudy
10:08 PM 28.4 °F - 28.4 °F 100% 30.33 in - SW 1.2 mph - N/A   Overcast
10:25 PM 30.2 °F - 30.2 °F 100% 30.30 in 2.5 mi SW 2.3 mph - N/A   Overcast
10:55 PM 30.2 °F - 30.2 °F 100% 30.30 in - SSW 2.3 mph - N/A   Scattered Clouds
11:25 PM 30.2 °F - 28.4 °F 93% 30.30 in - SE 1.2 mph - N/A   Mist
11:55 PM 30.2 °F - 30.2 °F 100% 30.30 in - SW 2.3 mph - N/A   Scattered Clouds